DW4174 Weather Reports


time (UTC)temp
F
wind
direction
speed
knots
gust
knots
rain 1hr
in
rain 24hr
in
rain mn
in
humidity
%
barometer
mb
20260905200129 100 161 1.7 6.1 0.00 0.00 0.00 30 1011.1
20260905195229 101 133 1.7 5.2 0.00 0.00 0.00 28 1011.3
20260905194329 100 239 1.7 3.5 0.00 0.00 0.00 29 1011.4
20260905192529 100 218 2.6 7.8 0.00 0.00 0.00 28 1011.7
20260905191629 99 214 1.7 7.8 0.00 0.00 0.00 29 1011.8
20260905190729 98 152 1.7 5.2 0.00 0.00 0.00 30 1012.0
20260905185829 99 158 1.7 6.1 0.00 0.00 0.00 30 1012.2
20260905184929 99 219 2.6 6.1 0.00 0.00 0.00 29 1012.2
20260905183129 100 319 1.7 5.2 0.00 0.00 0.00 29 1012.5
20260905182229 99 252 1.7 7.8 0.00 0.00 0.00 30 1012.5
20260905181329 98 270 0.9 5.2 0.00 0.00 0.00 31 1012.6
20260905180429 98 215 1.7 4.3 0.00 0.00 0.00 31 1012.6
20260905175529 98 146 0.9 2.6 0.00 0.00 0.00 31 1012.6
20260905174629 96 148 1.7 3.5 0.00 0.00 0.00 32 1012.7
20260905173729 96 133 2.6 5.2 0.00 0.00 0.00 32 1012.7
20260905172829 96 81 0.9 6.1 0.00 0.00 0.00 32 1012.6
20260905171929 95 61 1.7 3.5 0.00 0.00 0.00 34 1012.6
20260905171029 96 76 1.7 5.2 0.00 0.00 0.00 32 1012.7
20260905170129 95 101 0.9 3.5 0.00 0.00 0.00 34 1012.7
20260905164329 93 98 0.9 2.6 0.00 0.00 0.00 35 1012.6
20260905163429 94 97 0.9 6.1 0.00 0.00 0.00 35 1012.6
20260905162529 93 102 1.7 3.5 0.00 0.00 0.00 37 1012.5
20260905160729 92 238 0.9 1.7 0.00 0.00 0.00 39 1012.6
20260905155829 92 205 0.9 2.6 0.00 0.00 0.00 40 1012.7
20260905154929 90 130 0.9 2.6 0.00 0.00 0.00 41 1012.6
20260905153129 90 170 0.9 2.6 0.00 0.00 0.00 43 1012.4
20260905152229 89 177 0.9 2.6 0.00 0.00 0.00 44 1012.3
20260905151329 88 178 0.9 1.7 0.00 0.00 0.00 45 1012.2
20260905150429 88 181 0.9 2.6 0.00 0.00 0.00 45 1012.2
20260905144629 88 93 0.0 4.3 0.00 0.00 0.00 44 1012.2
20260905143729 88 37 0.0 1.7 0.00 0.00 0.00 42 1012.2
20260905142829 87 0 0.0 0.0 0.00 0.00 0.00 44 1012.1
20260905141929 87 0 0.0 0.0 0.00 0.00 0.00 44 1012.0
20260905141029 86 0 0.0 0.0 0.00 0.00 0.00 46 1011.9
20260905135229 84 0 0.0 0.0 0.00 0.00 0.00 48 1011.8
20260905134329 84 0 0.0 0.0 0.00 0.00 0.00 48 1011.6
20260905133429 82 0 0.0 0.0 0.00 0.00 0.00 50 1011.4
20260905131629 82 0 0.0 0.0 0.00 0.00 0.00 50 1011.3
20260905130729 82 0 0.0 0.0 0.00 0.00 0.00 50 1011.2
20260905125829 82 0 0.0 0.0 0.00 0.00 0.00 49 1011.1
20260905124929 82 0 0.0 0.0 0.00 0.00 0.00 48 1011.0
20260905124028 82 0 0.0 0.0 0.00 0.00 0.00 49 1011.1
20260905122228 83 0 0.0 0.0 0.00 0.00 0.00 47 1011.0
20260905121328 83 36 0.0 0.9 0.00 0.00 0.00 47 1010.9
20260905120429 83 36 0.0 0.9 0.00 0.00 0.00 47 1010.7
20260905115529 82 0 0.0 0.0 0.00 0.00 0.00 48 1010.7
20260905114628 83 0 0.0 0.0 0.00 0.00 0.00 47 1010.7
20260905113729 84 37 0.0 0.9 0.00 0.00 0.00 46 1010.7
20260905112829 83 36 0.0 0.9 0.00 0.00 0.00 47 1010.6
20260905111928 84 0 0.0 0.0 0.00 0.00 0.00 46 1010.6
20260905111028 84 0 0.0 0.0 0.00 0.00 0.00 46 1010.6
20260905110128 84 0 0.0 0.0 0.00 0.00 0.00 45 1010.5
20260905105229 84 0 0.0 0.0 0.00 0.00 0.00 45 1010.5
20260905104328 84 0 0.0 0.0 0.00 0.00 0.00 44 1010.5
20260905103428 84 0 0.0 0.0 0.00 0.00 0.00 44 1010.4
20260905102528 85 0 0.0 0.0 0.00 0.00 0.00 44 1010.3
20260905101628 86 0 0.0 0.0 0.00 0.00 0.00 43 1010.4
20260905100728 86 0 0.0 0.0 0.00 0.00 0.00 42 1010.3
20260905094028 87 37 0.0 1.7 0.00 0.00 0.00 41 1010.3
20260905093128 87 37 0.0 1.7 0.00 0.00 0.00 41 1010.3
20260905092228 87 0 0.0 0.0 0.00 0.00 0.00 40 1010.3
20260905091328 87 37 0.0 1.7 0.00 0.00 0.00 40 1010.3
20260905085528 86 0 0.0 0.0 0.00 0.00 0.00 41 1010.2
20260905084628 86 0 0.0 0.0 0.00 0.00 0.00 41 1010.3
20260905083728 86 0 0.0 0.0 0.00 0.00 0.00 41 1010.3
20260905081928 87 0 0.0 0.0 0.00 0.00 0.00 39 1010.3
20260905080128 87 0 0.0 0.0 0.00 0.00 0.00 39 1010.3
20260905075228 87 0 0.0 0.0 0.00 0.00 0.00 39 1010.3
20260905074328 88 0 0.0 0.0 0.00 0.00 0.00 37 1010.3
20260905073428 89 276 0.9 0.9 0.00 0.00 0.00 37 1010.2
20260905072528 90 276 0.9 1.7 0.00 0.00 0.00 36 1010.2
20260905071628 90 275 0.0 2.6 0.00 0.00 0.00 35 1010.2
20260905070728 90 275 0.0 2.6 0.00 0.00 0.00 36 1010.2
20260905065828 90 276 0.9 2.6 0.00 0.00 0.00 35 1010.1
20260905064928 91 276 0.9 3.5 0.00 0.00 0.00 34 1010.2
20260905064028 91 263 0.9 2.6 0.00 0.00 0.00 34 1010.1
20260905063128 91 258 0.9 2.6 0.00 0.00 0.00 34 1010.0
20260905060428 91 270 1.7 3.5 0.00 0.00 0.00 34 1009.9
20260905055528 92 275 1.7 3.5 0.00 0.00 0.00 34 1009.9
20260905054628 92 277 1.7 2.6 0.00 0.00 0.00 34 1009.9
20260905053728 92 277 1.7 3.5 0.00 0.00 0.00 34 1009.9
20260905052828 92 276 0.9 2.6 0.00 0.00 0.00 33 1009.7
20260905051928 92 277 1.7 3.5 0.00 0.00 0.00 33 1009.7
20260905051028 93 278 1.7 5.2 0.00 0.00 0.00 33 1009.7
20260905050128 93 280 1.7 5.2 0.00 0.00 0.00 32 1009.7
20260905045228 93 271 1.7 3.5 0.00 0.00 0.00 32 1009.6
20260905044328 94 259 0.9 3.5 0.00 0.00 0.00 31 1009.5
20260905043428 94 258 1.7 2.6 0.00 0.00 0.00 31 1009.5
20260905041628 94 262 1.7 3.5 0.00 0.00 0.00 29 1009.4
20260905040728 95 256 2.6 5.2 0.00 0.00 0.00 29 1009.3
20260905035828 95 250 2.6 6.1 0.00 0.00 0.00 28 1009.3
20260905034928 96 252 3.5 6.1 0.00 0.00 0.00 28 1009.1
20260905034028 96 262 3.5 7.0 0.00 0.00 0.00 27 1009.1
20260905033128 96 265 3.5 7.0 0.00 0.00 0.00 27 1009.0
20260905032228 96 276 2.6 7.0 0.00 0.00 0.00 26 1008.8
20260905031328 97 281 2.6 8.7 0.00 0.00 0.00 26 1008.8
20260905030428 97 288 3.5 6.1 0.00 0.00 0.00 26 1008.6
20260905025528 97 282 2.6 7.8 0.00 0.00 0.00 27 1008.4
20260905024628 97 303 1.7 7.8 0.00 0.00 0.00 32 1008.4
20260905021028 98 85 2.6 4.3 0.00 0.00 0.00 32 1007.8
20260905015228 98 64 0.9 6.1 0.00 0.00 0.00 32 1007.7
20260905014328 98 325 1.7 2.6 0.00 0.00 0.00 30 1007.7
20260905013428 99 331 1.7 3.5 0.00 0.00 0.00 30 1007.7
20260905012528 99 3 1.7 4.3 0.00 0.00 0.00 30 1007.7
20260905011628 100 339 0.9 5.2 0.00 0.00 0.00 30 1007.6
20260905010728 100 36 0.0 3.5 0.00 0.00 0.00 29 1007.5
20260905004028 101 256 1.7 6.1 0.00 0.00 0.00 29 1007.6
20260905003128 101 281 0.9 5.2 0.00 0.00 0.00 29 1007.7
20260905002227 100 246 0.9 1.7 0.00 0.00 0.00 30 1007.7
20260905001328 99 263 1.7 6.1 0.00 0.00 0.00 30 1007.7
20260905000428 100 17 2.6 4.3 0.00 0.00 0.00 30 1007.8
20260904235528 101 315 1.7 7.8 0.00 0.00 0.00 29 1007.8
20260904234628 102 269 1.7 4.3 0.00 0.00 0.00 29 1007.8
20260904232828 102 195 2.6 6.1 0.00 0.00 0.00 28 1007.9
20260904231927 102 239 1.7 6.1 0.00 0.00 0.00 28 1008.0
20260904231028 101 224 1.7 4.3 0.00 0.00 0.00 30 1008.1
20260904230128 100 171 2.6 7.8 0.00 0.00 0.00 30 1008.1
20260904224327 101 197 3.5 7.8 0.00 0.00 0.00 30 1008.2
20260904223427 101 165 3.5 8.7 0.00 0.00 0.00 30 1008.5
20260904222527 102 214 3.5 6.1 0.00 0.00 0.00 29 1008.4
20260904221627 101 198 1.7 10.4 0.00 0.00 0.00 30 1008.5
20260904220727 100 229 1.7 4.3 0.00 0.00 0.00 31 1008.6
20260904215827 100 227 4.3 9.6 0.00 0.00 0.00 31 1008.7
20260904214927 101 162 4.3 10.4 0.00 0.00 0.00 31 1009.0
20260904214027 101 164 3.5 12.2 0.00 0.00 0.00 31 1009.1
20260904213127 102 170 2.6 8.7 0.00 0.00 0.00 30 1009.1
20260904212227 100 186 2.6 6.1 0.00 0.00 0.00 31 1009.2
20260904211327 99 164 3.5 6.1 0.00 0.00 0.00 31 1009.4
20260904210427 100 194 4.3 11.3 0.00 0.00 0.00 30 1009.6
20260904205527 102 171 4.3 9.6 0.00 0.00 0.00 30 1009.5
20260904204627 103 202 3.5 10.4 0.00 0.00 0.00 29 1009.7
20260904203727 103 182 4.3 10.4 0.00 0.00 0.00 30 1009.9
20260904202827 102 245 4.3 10.4 0.00 0.00 0.00 30 1010.0
20260904201927 101 173 5.2 11.3 0.00 0.00 0.00 33 1010.1
20260904201027 100 156 5.2 14.8 0.00 0.00 0.00 33 1010.2